Вернуться в каталог

STARLINK-31762

АктивенСвязьVLEO
NORAD 59614·PAYLOAD·🇺🇸 United States

Запущен Apr 28, 2024 с Cape Canaveral Space Force Station

Loading…

Ближайшие Пролёты (ближайшие 24 часа)

TLE

СвежийSource: CelesTrak SupGP

Эпоха: Sep 15, 2026, 02:48 UTC

1 59614C 24080P   26258.11715278 -.00028094  00000+0 -10175-2 0  2582
2 59614  43.0039  48.2542 0001487 267.9388  17.7178 15.27594903    11

Отслеживайте STARLINK-31762 в реальном времени с AllMySat

Download on the App Store